| time (UTC) | temp C | wind direction | speed KPH | gust KPH | rain 1hr cm | rain 24hr cm | rain mn cm | humidity % | barometer mb |
| 20260503232144 | 33 | 287 | 8.0 | 12.9 | 0.00 | 0.00 | 0.00 | 30 | 1004.3 |
| 20260503231021 | 32 | 257 | 6.4 | 12.9 | 0.00 | 0.00 | 0.00 | 31 | 1004.3 |
| 20260503230028 | 32 | 267 | 8.0 | 14.5 | 0.00 | 0.00 | 0.00 | 31 | 1004.3 |
| 20260503225037 | 32 | 264 | 6.4 | 9.7 | 0.00 | 0.00 | 0.00 | 34 | 1004.3 |
| 20260503224025 | 32 | 282 | 6.4 | 11.3 | 0.00 | 0.00 | 0.00 | 33 | 1005.1 |
| 20260503223034 | 33 | 214 | 8.0 | 11.3 | 0.00 | 0.00 | 0.00 | 35 | 1005.3 |
| 20260503222025 | 32 | 282 | 4.8 | 9.7 | 0.00 | 0.00 | 0.00 | 37 | 1005.3 |
| 20260503221031 | 32 | 274 | 8.0 | 9.7 | 0.00 | 0.00 | 0.00 | 37 | 1005.3 |
| 20260503220039 | 32 | 265 | 8.0 | 12.9 | 0.00 | 0.00 | 0.00 | 38 | 1005.3 |
| 20260503215028 | 31 | 301 | 6.4 | 9.7 | 0.00 | 0.00 | 0.00 | 40 | 1005.3 |
| 20260503214036 | 31 | 260 | 8.0 | 11.3 | 0.00 | 0.00 | 0.00 | 40 | 1006.1 |
| 20260503213025 | 31 | 257 | 6.4 | 9.7 | 0.00 | 0.00 | 0.00 | 41 | 1006.3 |
| 20260503212028 | 30 | 260 | 9.7 | 11.3 | 0.00 | 0.00 | 0.00 | 42 | 1006.3 |
| 20260503211043 | 30 | 276 | 6.4 | 11.3 | 0.00 | 0.00 | 0.00 | 42 | 1006.3 |
| 20260503210050 | 30 | 278 | 8.0 | 11.3 | 0.00 | 0.00 | 0.00 | 45 | 1006.3 |
| 20260503205020 | 30 | 262 | 9.7 | 12.9 | 0.00 | 0.00 | 0.00 | 44 | 1006.3 |
| 20260503204028 | 29 | 281 | 6.4 | 9.7 | 0.00 | 0.00 | 0.00 | 46 | 1006.3 |
| 20260503203037 | 29 | 255 | 6.4 | 9.7 | 0.00 | 0.00 | 0.00 | 47 | 1006.3 |
| 20260503202028 | 28 | 256 | 8.0 | 12.9 | 0.00 | 0.00 | 0.00 | 47 | 1007.3 |
| 20260503201033 | 28 | 216 | 6.4 | 9.7 | 0.00 | 0.00 | 0.00 | 49 | 1007.3 |
| 20260503200023 | 28 | 248 | 4.8 | 9.7 | 0.00 | 0.00 | 0.00 | 51 | 1007.3 |
| 20260503195031 | 27 | 228 | 9.7 | 14.5 | 0.00 | 0.00 | 0.00 | 50 | 1007.3 |
| 20260503194039 | 27 | 350 | 4.8 | 6.4 | 0.00 | 0.00 | 0.00 | 53 | 1007.3 |
| 20260503193027 | 27 | 275 | 6.4 | 8.0 | 0.00 | 0.00 | 0.00 | 54 | 1007.3 |
| 20260503192028 | 27 | 270 | 6.4 | 9.7 | 0.00 | 0.00 | 0.00 | 53 | 1007.3 |
| 20260503191025 | 26 | 230 | 4.8 | 8.0 | 0.00 | 0.00 | 0.00 | 56 | 1008.1 |
| 20260503190033 | 26 | 251 | 6.4 | 9.7 | 0.00 | 0.00 | 0.00 | 56 | 1008.3 |
| 20260503185023 | 25 | 178 | 4.8 | 8.0 | 0.00 | 0.00 | 0.00 | 58 | 1008.3 |
| 20260503184050 | 26 | 258 | 8.0 | 11.3 | 0.00 | 0.00 | 0.00 | 55 | 1008.3 |
| 20260503183020 | 25 | 250 | 6.4 | 8.0 | 0.00 | 0.00 | 0.00 | 57 | 1008.3 |
| 20260503182029 | 25 | 215 | 4.8 | 9.7 | 0.00 | 0.00 | 0.00 | 59 | 1008.3 |
| 20260503181036 | 24 | 257 | 6.4 | 9.7 | 0.00 | 0.00 | 0.00 | 58 | 1008.3 |
| 20260503180025 | 23 | 249 | 6.4 | 11.3 | 0.00 | 0.00 | 0.00 | 59 | 1008.3 |
| 20260503175053 | 23 | 256 | 8.0 | 11.3 | 0.00 | 0.00 | 0.00 | 60 | 1008.2 |
| 20260503174042 | 23 | 253 | 8.0 | 14.5 | 0.00 | 0.03 | 0.00 | 60 | 1008.3 |
| 20260503173030 | 23 | 237 | 6.4 | 8.0 | 0.00 | 0.03 | 0.00 | 60 | 1008.3 |
| 20260503172021 | 23 | 222 | 4.8 | 8.0 | 0.00 | 0.03 | 0.00 | 60 | 1008.3 |
| 20260503171020 | 23 | 47 | 4.8 | 9.7 | 0.00 | 0.03 | 0.00 | 62 | 1008.3 |
| 20260503131023 | 10 | 0.0 | 0.0 | 0.00 | 0.03 | 0.00 | 99 | 1008.1 | |
| 20260503081033 | 12 | 0.0 | 0.0 | 0.00 | 0.03 | 0.00 | 96 | 1009.1 | |
| 20260503072040 | 13 | 0.0 | 0.0 | 0.00 | 0.03 | 0.00 | 94 | 1009.1 | |
| 20260503071025 | 13 | 0.0 | 0.0 | 0.00 | 0.03 | 0.00 | 92 | 1009.1 | |
| 20260503055034 | 15 | 0.0 | 3.2 | 0.00 | 0.03 | 0.03 | 88 | 1009.1 | |
| 20260503054023 | 15 | 255 | 1.6 | 3.2 | 0.00 | 0.03 | 0.03 | 88 | 1009.1 |
| 20260503053031 | 15 | 253 | 1.6 | 4.8 | 0.00 | 0.03 | 0.03 | 88 | 1009.1 |
| 20260503052021 | 15 | 235 | 3.2 | 4.8 | 0.00 | 0.03 | 0.03 | 88 | 1009.1 |
| 20260503051032 | 15 | 247 | 3.2 | 3.2 | 0.00 | 0.03 | 0.03 | 87 | 1009.1 |
| 20260503050022 | 15 | 203 | 3.2 | 4.8 | 0.00 | 0.03 | 0.03 | 87 | 1009.1 |
| 20260503045025 | 15 | 0.0 | 0.0 | 0.00 | 0.03 | 0.03 | 86 | 1009.1 | |
| 20260503044053 | 16 | 0.0 | 0.0 | 0.00 | 0.03 | 0.03 | 85 | 1009.2 | |
| 20260503043023 | 16 | 321 | 1.6 | 3.2 | 0.00 | 0.03 | 0.03 | 84 | 1009.2 |
| 20260503042031 | 16 | 229 | 1.6 | 3.2 | 0.00 | 0.03 | 0.03 | 84 | 1009.1 |
| 20260503041020 | 16 | 280 | 1.6 | 3.2 | 0.00 | 0.03 | 0.03 | 83 | 1009.1 |
| 20260503040043 | 16 | 89 | 3.2 | 6.4 | 0.00 | 0.03 | 0.03 | 82 | 1009.1 |
| 20260503035037 | 17 | 61 | 3.2 | 4.8 | 0.00 | 0.03 | 0.03 | 81 | 1009.1 |
| 20260503034026 | 17 | 42 | 3.2 | 4.8 | 0.00 | 0.03 | 0.03 | 80 | 1008.3 |
| 20260503033034 | 17 | 331 | 3.2 | 6.4 | 0.00 | 0.03 | 0.03 | 79 | 1008.1 |
| 20260503032024 | 17 | 301 | 1.6 | 6.4 | 0.00 | 0.03 | 0.03 | 79 | 1008.1 |
| 20260503031037 | 17 | 250 | 3.2 | 4.8 | 0.00 | 0.03 | 0.03 | 79 | 1008.1 |
| 20260503030044 | 17 | 333 | 3.2 | 6.4 | 0.00 | 0.03 | 0.03 | 78 | 1008.1 |
| 20260503025029 | 17 | 6 | 4.8 | 8.0 | 0.00 | 0.03 | 0.03 | 78 | 1008.1 |
| 20260503024037 | 17 | 329 | 3.2 | 4.8 | 0.00 | 0.03 | 0.03 | 77 | 1008.1 |
| 20260503023026 | 18 | 247 | 4.8 | 6.4 | 0.00 | 0.03 | 0.03 | 76 | 1008.1 |
| 20260503022037 | 18 | 247 | 4.8 | 8.0 | 0.00 | 0.03 | 0.03 | 75 | 1008.1 |
| 20260503021124 | 18 | 262 | 3.2 | 4.8 | 0.00 | 0.03 | 0.03 | 74 | 1008.8 |
| 20260503020025 | 18 | 109 | 1.6 | 3.2 | 0.00 | 0.03 | 0.03 | 74 | 1009.1 |
| 20260503015021 | 18 | 91 | 3.2 | 6.4 | 0.00 | 0.03 | 0.03 | 74 | 1009.1 |
| 20260503014110 | 18 | 93 | 6.4 | 17.7 | 0.00 | 0.03 | 0.03 | 75 | 1010.0 |
| 20260503013037 | 18 | 85 | 12.9 | 17.7 | 0.00 | 0.03 | 0.03 | 73 | 1010.1 |
| 20260503012029 | 20 | 90 | 11.3 | 14.5 | 0.00 | 0.03 | 0.03 | 69 | 1009.1 |
| 20260503011037 | 20 | 98 | 4.8 | 6.4 | 0.00 | 0.03 | 0.03 | 68 | 1009.1 |
| 20260503010026 | 20 | 48 | 1.6 | 4.8 | 0.00 | 0.03 | 0.03 | 67 | 1009.1 |
| 20260503005032 | 20 | 269 | 4.8 | 6.4 | 0.00 | 0.03 | 0.03 | 67 | 1009.1 |
| 20260503004021 | 20 | 279 | 4.8 | 9.7 | 0.00 | 0.03 | 0.03 | 67 | 1009.1 |
| 20260503003028 | 20 | 305 | 4.8 | 6.4 | 0.00 | 0.03 | 0.03 | 67 | 1009.1 |
| 20260503002057 | 20 | 232 | 6.4 | 8.0 | 0.00 | 0.03 | 0.03 | 67 | 1009.1 |
| 20260503001048 | 20 | 273 | 4.8 | 6.4 | 0.00 | 0.03 | 0.03 | 67 | 1009.1 |
| 20260503000030 | 20 | 258 | 4.8 | 8.0 | 0.00 | 0.03 | 0.03 | 68 | 1009.1 |
| 20260502235023 | 20 | 258 | 6.4 | 12.9 | 0.00 | 0.03 | 0.03 | 67 | 1009.1 |
| 20260502234031 | 20 | 251 | 6.4 | 11.3 | 0.00 | 0.03 | 0.03 | 67 | 1009.1 |
| 20260502233021 | 20 | 282 | 4.8 | 9.7 | 0.00 | 0.03 | 0.03 | 67 | 1009.1 |